FW9444 Weather Reports


time (UTC)temp
F
wind
direction
speed
knots
gust
knots
rain 1hr
in
rain 24hr
in
rain mn
in
humidity
%
barometer
mb
20260510204449 83 59 0.0 0.0 0.00 0.00 0.00 44 1012.2
20260510203946 84 12 0.0 0.0 0.00 0.00 0.00 42 1012.1
20260510203443 84 241 0.0 0.0 0.00 0.00 0.00 44 1012.3
20260510202938 83 52 0.0 0.0 0.00 0.00 0.00 48 1012.5
20260510202434 85 146 0.0 0.0 0.00 0.00 0.00 45 1012.6
20260510201931 84 254 0.0 0.0 0.00 0.00 0.00 45 1012.5
20260510201428 84 342 0.0 0.0 0.00 0.00 0.00 47 1012.4
20260510200924 84 260 0.0 0.0 0.00 0.00 0.00 48 1012.7
20260510200424 84 203 0.0 0.0 0.00 0.00 0.00 46 1012.8
20260510195918 85 259 0.0 0.0 0.00 0.00 0.00 50 1013.0
20260510195410 84 57 0.0 0.0 0.00 0.00 0.00 48 1013.0
20260510194904 84 48 0.0 0.0 0.00 0.00 0.00 48 1012.9
20260510194401 84 203 0.0 0.0 0.00 0.00 0.00 48 1013.0
20260510193857 82 85 0.0 0.0 0.00 0.00 0.00 52 1012.8
20260510193352 81 242 0.0 0.0 0.00 0.00 0.00 52 1012.9
20260510192847 80 359 0.0 0.0 0.00 0.00 0.00 53 1012.8
20260510192343 80 23 0.0 0.0 0.00 0.00 0.00 51 1012.9
20260510191839 82 310 0.0 0.0 0.00 0.00 0.00 55 1012.8
20260510191335 80 95 0.0 0.0 0.00 0.00 0.00 55 1012.7
20260510190833 78 78 0.0 0.0 0.00 0.00 0.00 58 1012.9
20260510190331 78 72 0.0 0.0 0.00 0.00 0.00 55 1013.0
20260510185826 78 66 0.0 0.0 0.00 0.00 0.00 56 1013.0
20260510185324 79 70 0.0 0.0 0.00 0.00 0.00 55 1013.1
20260510184816 80 57 1.7 1.7 0.00 0.00 0.00 52 1013.2
20260510184313 78 311 0.0 0.0 0.00 0.00 0.00 59 1013.4
20260510183813 78 180 0.0 0.0 0.00 0.00 0.00 59 1013.2
20260510183308 80 72 0.0 0.0 0.00 0.00 0.00 57 1013.5
20260510182804 81 78 0.0 0.0 0.00 0.00 0.00 56 1013.4
20260510182301 82 73 0.0 0.0 0.00 0.00 0.00 56 1013.4
20260510181757 80 294 0.0 0.0 0.00 0.00 0.00 54 1013.5
20260510181254 80 332 0.0 0.0 0.00 0.00 0.00 56 1013.4
20260510180750 80 299 0.0 0.0 0.00 0.00 0.00 58 1013.6
20260510180248 80 218 0.0 0.0 0.00 0.00 0.00 57 1013.6
20260510175745 80 187 0.0 0.0 0.00 0.00 0.00 65 1013.7
20260510175240 80 218 1.7 2.6 0.00 0.00 0.00 59 1013.7
20260510174737 78 271 0.0 0.0 0.00 0.00 0.00 62 1013.6
20260510174234 77 75 0.0 0.0 0.00 0.00 0.00 60 1013.7
20260510173731 79 5 0.0 0.0 0.00 0.00 0.00 61 1013.9
20260510173226 80 169 0.0 0.0 0.00 0.00 0.00 66 1013.7
20260510172722 79 202 0.0 0.0 0.00 0.00 0.00 63 1013.9
20260510172218 78 224 0.0 0.0 0.00 0.00 0.00 66 1014.0
20260510171715 78 318 3.5 5.2 0.00 0.00 0.00 67 1013.9
20260510171212 78 349 0.0 0.0 0.00 0.00 0.00 67 1013.9
20260510170709 79 235 0.0 0.0 0.00 0.00 0.00 68 1013.9
20260510170205 77 250 0.0 0.0 0.00 0.00 0.00 72 1013.8
20260510165702 76 248 0.0 0.0 0.00 0.00 0.00 71 1014.1
20260510165158 75 225 0.0 0.0 0.00 0.00 0.00 74 1013.9
20260510164655 76 189 0.0 0.0 0.00 0.00 0.00 76 1013.9
20260510164152 76 211 0.0 0.0 0.00 0.00 0.00 75 1014.1
20260510163647 76 257 0.0 0.0 0.00 0.00 0.00 75 1014.1
20260510163143 77 284 0.0 0.9 0.00 0.00 0.00 75 1014.0
20260510162637 76 225 0.0 0.0 0.00 0.00 0.00 78 1014.0
20260510162135 75 254 0.0 0.0 0.00 0.00 0.00 80 1014.3
20260510161630 74 247 0.0 0.0 0.00 0.00 0.00 81 1014.2
20260510161127 74 224 0.0 0.0 0.00 0.00 0.00 81 1014.2
20260510160624 74 298 0.0 0.0 0.00 0.00 0.00 80 1014.2
20260510160124 74 195 0.0 0.0 0.00 0.00 0.00 82 1014.0
20260510155621 73 202 0.0 0.0 0.00 0.00 0.00 83 1014.1
20260510155117 74 213 0.0 0.0 0.00 0.00 0.00 82 1014.0
20260510154612 74 202 0.0 0.0 0.00 0.00 0.00 84 1014.1
20260510154108 72 174 0.0 0.0 0.00 0.00 0.00 83 1013.9
20260510153603 72 228 0.0 0.0 0.00 0.00 0.00 86 1013.9
20260510153100 72 212 0.0 0.0 0.00 0.00 0.00 86 1013.9
20260510152557 72 170 0.0 0.0 0.00 0.00 0.00 86 1013.8
20260510152054 71 189 0.0 0.0 0.00 0.00 0.00 88 1014.0
20260510151550 71 183 0.0 0.0 0.00 0.00 0.00 88 1013.9
20260510151048 70 188 0.0 0.0 0.00 0.00 0.00 90 1014.1
20260510150548 70 223 0.0 0.0 0.00 0.00 0.00 90 1014.0
20260510150044 69 179 0.0 0.0 0.00 0.00 0.00 90 1013.8
20260510145541 68 182 0.0 0.0 0.00 0.00 0.00 93 1013.8
20260510145037 67 213 0.0 0.0 0.00 0.00 0.00 94 1013.8
20260510144534 67 199 0.0 0.0 0.00 0.00 0.00 95 1014.0
20260510144030 66 209 0.0 0.0 0.00 0.00 0.00 96 1013.9
20260510143525 65 195 0.0 0.0 0.00 0.00 0.00 97 1014.2
20260510143022 65 250 0.0 0.0 0.00 0.00 0.00 97 1014.0
20260510142519 65 224 0.0 0.0 0.00 0.00 0.00 97 1014.0
20260510142016 65 187 0.0 0.0 0.00 0.00 0.00 98 1014.0
20260510141512 65 199 0.0 0.0 0.00 0.00 0.00 98 1014.1
20260510141010 64 200 0.0 0.0 0.00 0.00 0.00 98 1014.0
20260510140506 63 215 0.0 0.0 0.00 0.00 0.00 98 1014.2
20260510140000 64 204 0.0 0.0 0.00 0.00 0.00 99 1014.2
20260510135455 64 227 0.0 0.0 0.00 0.00 0.00 98 1014.1
20260510134953 64 184 0.0 0.0 0.00 0.00 0.00 98 1013.9
20260510134450 64 226 0.0 0.0 0.00 0.00 0.00 99 1013.9
20260510133947 63 253 0.0 0.0 0.00 0.00 0.00 99 1013.7
20260510133442 63 255 0.0 0.0 0.00 0.00 0.00 99 1014.0
20260510132938 63 168 0.0 0.0 0.00 0.00 0.00 99 1013.8
20260510132436 64 174 0.0 0.0 0.00 0.00 0.00 99 1013.8
20260510131932 63 174 0.0 0.0 0.00 0.00 0.00 99 1013.8
20260510131430 62 184 0.0 0.0 0.00 0.00 0.00 99 1013.7
20260510130926 63 161 0.0 0.0 0.00 0.00 0.00 99 1013.7
20260510130423 62 160 0.0 0.0 0.00 0.00 0.00 99 1013.7
20260510125921 62 160 0.0 0.0 0.00 0.00 0.00 99 1013.5
20260510125416 63 162 0.0 0.0 0.00 0.00 0.00 99 1013.5
20260510124914 62 160 0.0 0.0 0.00 0.00 0.00 99 1013.5
20260510124410 62 174 0.0 0.0 0.00 0.00 0.00 99 1013.2
20260510123906 62 176 0.0 0.0 0.00 0.00 0.00 99 1013.2
20260510123402 62 176 0.0 0.0 0.00 0.00 0.00 99 1013.0
20260510122858 62 185 0.0 0.0 0.00 0.00 0.00 99 1013.2
20260510122354 62 173 0.0 0.0 0.00 0.00 0.00 99 1013.1
20260510121850 62 176 0.0 0.0 0.00 0.00 0.00 99 1013.1
20260510121348 62 176 0.0 0.0 0.00 0.00 0.00 99 1012.8
20260510120845 62 183 0.0 0.0 0.00 0.00 0.00 99 1012.9
20260510120343 62 171 0.0 0.0 0.00 0.00 0.00 99 1013.0
20260510115838 61 184 0.0 0.0 0.00 0.00 0.00 99 1012.9
20260510115335 61 183 0.0 0.0 0.00 0.00 0.00 99 1012.6
20260510114831 61 172 0.0 0.0 0.00 0.00 0.00 99 1012.7
20260510114328 61 172 0.0 0.0 0.00 0.00 0.00 99 1012.6
20260510113828 61 172 0.0 0.0 0.00 0.00 0.00 99 1012.6
20260510113325 60 181 0.0 0.0 0.00 0.00 0.00 98 1012.5
20260510112822 60 181 0.0 0.0 0.00 0.00 0.00 98 1012.5
20260510112319 60 181 0.0 0.0 0.00 0.00 0.00 98 1012.3
20260510111815 60 181 0.0 0.0 0.00 0.00 0.00 98 1012.2
20260510111311 60 170 0.0 0.0 0.00 0.00 0.00 98 1012.2
20260510110811 59 173 0.0 0.0 0.00 0.00 0.00 98 1012.1
20260510110309 59 165 0.0 0.0 0.00 0.00 0.00 98 1012.2
20260510105804 59 168 0.0 0.0 0.00 0.00 0.00 98 1011.9
20260510105259 59 170 0.0 0.0 0.00 0.00 0.00 98 1011.8
20260510104756 59 181 0.0 0.0 0.00 0.00 0.00 98 1011.8
20260510104253 59 171 0.0 0.0 0.00 0.00 0.00 98 1011.8
20260510103749 58 170 0.0 0.0 0.00 0.00 0.00 98 1011.6
20260510103246 58 172 0.0 0.0 0.00 0.00 0.00 98 1011.7
20260510102746 57 172 0.0 0.0 0.00 0.00 0.00 98 1011.6
20260510102242 56 163 0.0 0.0 0.00 0.00 0.00 98 1011.5
20260510101740 55 163 0.0 0.0 0.00 0.00 0.00 98 1011.6
20260510101238 55 163 0.0 0.0 0.00 0.00 0.00 98 1011.2
20260510100733 55 163 0.0 0.0 0.00 0.00 0.00 98 1011.3
20260510100232 55 163 0.0 0.0 0.00 0.00 0.00 98 1011.5
20260510095727 55 163 0.0 0.0 0.00 0.00 0.00 98 1011.1
20260510095222 55 163 0.0 0.0 0.00 0.00 0.00 98 1011.3
20260510094721 55 163 0.0 0.0 0.00 0.00 0.00 97 1011.1
20260510094217 55 163 0.0 0.0 0.00 0.00 0.00 97 1011.1
20260510093713 56 163 0.0 0.0 0.00 0.00 0.00 97 1010.8
20260510093210 56 163 0.0 0.0 0.00 0.00 0.00 97 1010.9
20260510092707 56 163 0.0 0.0 0.00 0.00 0.00 97 1010.9
20260510092203 56 163 0.0 0.0 0.00 0.00 0.00 97 1011.1
20260510091658 56 163 0.0 0.0 0.00 0.00 0.00 97 1010.8
20260510091155 56 163 0.0 0.0 0.00 0.00 0.00 97 1011.5
20260510090652 56 163 0.0 0.0 0.00 0.00 0.00 97 1011.3
20260510090148 56 163 0.0 0.0 0.00 0.00 0.00 97 1011.3
20260510085643 56 163 0.0 0.0 0.00 0.00 0.00 97 1011.2
20260510085139 56 163 0.0 0.0 0.00 0.00 0.00 97 1010.7
20260510084635 56 163 0.0 0.0 0.00 0.00 0.00 97 1010.8
20260510084132 56 163 0.0 0.0 0.00 0.00 0.00 97 1010.9
20260510083629 57 163 0.0 0.0 0.00 0.00 0.00 97 1010.8
20260510083125 57 163 0.0 0.0 0.00 0.00 0.00 97 1010.7
20260510082621 57 163 0.0 0.0 0.00 0.00 0.00 97 1010.6
20260510082117 57 163 0.0 0.0 0.00 0.00 0.00 97 1010.3
20260510081612 57 163 0.0 0.0 0.00 0.00 0.00 97 1010.4
20260510081108 57 163 0.0 0.0 0.00 0.00 0.00 97 1010.1
20260510080602 57 163 0.0 0.0 0.00 0.00 0.00 97 1010.2
20260510080059 57 163 0.0 0.0 0.00 0.00 0.00 97 1010.1
20260510075556 57 163 0.0 0.0 0.00 0.00 0.00 97 1010.3
20260510075053 57 163 0.0 0.0 0.00 0.00 0.00 97 1010.2
20260510074550 58 163 0.0 0.0 0.00 0.00 0.00 97 1010.1
20260510074045 58 163 0.0 0.0 0.00 0.00 0.00 97 1009.9
20260510073542 57 163 0.0 0.0 0.00 0.00 0.00 97 1010.0
20260510073039 57 163 0.0 0.0 0.00 0.00 0.00 96 1010.1
20260510072536 57 163 0.0 0.0 0.00 0.00 0.00 96 1010.3
20260510072031 58 163 0.0 0.0 0.00 0.00 0.00 96 1010.0
20260510071527 58 163 0.0 0.0 0.00 0.00 0.00 96 1010.1
20260510071026 58 163 0.0 0.0 0.00 0.00 0.00 96 1010.0
20260510070522 58 163 0.0 0.0 0.00 0.00 0.00 96 1010.3
20260510070019 58 163 0.0 0.0 0.00 0.00 0.00 96 1010.2
20260510065515 58 163 0.0 0.0 0.00 0.00 0.00 96 1010.1
20260510065011 59 163 0.0 0.0 0.00 0.00 0.00 96 1010.1
20260510064509 58 163 0.0 0.0 0.00 0.00 0.00 96 1010.0
20260510064005 59 163 0.0 0.0 0.00 0.00 0.00 96 1010.1
20260510063502 59 163 0.0 0.0 0.00 0.00 0.00 96 1010.2
20260510062959 59 163 0.0 0.0 0.00 0.00 0.00 96 1010.2
20260510062455 59 163 0.0 0.0 0.00 0.00 0.00 96 1010.2
20260510061950 59 163 0.0 0.0 0.00 0.00 0.00 96 1010.2
20260510061447 59 163 0.0 0.0 0.00 0.00 0.00 95 1010.4
20260510060943 59 163 0.0 0.0 0.00 0.00 0.00 95 1010.3
20260510060441 59 163 0.0 0.0 0.00 0.00 0.00 95 1010.3
20260510055936 59 163 0.0 0.0 0.00 0.00 0.00 95 1010.2
20260510055432 59 163 0.0 0.0 0.00 0.00 0.00 95 1010.1
20260510054930 59 163 0.0 0.0 0.00 0.00 0.00 95 1010.2
20260510054426 59 163 0.0 0.0 0.00 0.00 0.00 95 1010.3
20260510053921 60 163 0.0 0.0 0.00 0.00 0.00 95 1010.3
20260510053417 60 163 0.0 0.0 0.00 0.00 0.00 95 1010.6
20260510052913 60 163 0.0 0.0 0.00 0.00 0.00 95 1010.2
20260510052409 60 163 0.0 0.0 0.00 0.00 0.00 95 1010.5
20260510051905 60 163 0.0 0.0 0.00 0.00 0.00 95 1010.4
20260510051402 60 163 0.0 0.0 0.00 0.00 0.00 94 1010.3
20260510050858 60 163 0.0 0.0 0.00 0.00 0.00 94 1010.3
20260510050355 60 163 0.0 0.0 0.00 0.00 0.00 94 1010.2
20260510045852 60 163 0.0 0.0 0.00 0.00 0.00 94 1010.4
20260510045349 60 163 0.0 0.0 0.00 0.00 0.00 94 1010.3
20260510044846 61 163 0.0 0.0 0.00 0.00 0.00 94 1010.3
20260510044343 61 163 0.0 0.0 0.00 0.00 0.00 94 1010.4
20260510043839 61 163 0.0 0.0 0.00 0.00 0.00 94 1010.4
20260510043335 61 163 0.0 0.0 0.00 0.00 0.00 94 1010.4
20260510042834 61 163 0.0 0.0 0.00 0.00 0.00 94 1010.4
20260510042329 61 163 0.0 0.0 0.00 0.00 0.00 94 1010.4
20260510041825 62 163 0.0 0.0 0.00 0.00 0.00 93 1010.6
20260510041323 62 163 0.0 0.0 0.00 0.00 0.00 93 1010.6
20260510040820 62 163 0.0 0.0 0.00 0.00 0.00 93 1010.5
20260510040316 62 163 0.0 0.0 0.00 0.00 0.00 93 1010.5
20260510035812 62 163 0.0 0.0 0.00 0.00 0.00 92 1010.5
20260510035308 62 163 0.0 0.0 0.00 0.00 0.00 92 1010.5
20260510034804 62 163 0.0 0.0 0.00 0.00 0.00 92 1010.5
20260510034302 62 163 0.0 0.0 0.00 0.00 0.00 92 1010.5
20260510033758 63 163 0.0 0.0 0.00 0.00 0.00 92 1010.6
20260510033256 63 163 0.0 0.0 0.00 0.00 0.00 91 1010.6
20260510032751 64 163 0.0 0.0 0.00 0.00 0.00 91 1010.5
20260510032248 64 163 0.0 0.0 0.00 0.00 0.00 91 1010.5
20260510031743 64 163 0.0 0.0 0.00 0.00 0.00 90 1010.3
20260510031239 65 163 0.0 0.0 0.00 0.00 0.00 91 1010.5
20260510030738 65 163 0.0 0.0 0.00 0.00 0.00 90 1010.5
20260510030231 66 163 0.0 0.0 0.00 0.00 0.00 90 1010.3
20260510025728 66 169 0.0 0.0 0.00 0.00 0.00 90 1010.3
20260510025226 66 168 0.0 0.0 0.00 0.00 0.00 89 1010.3
20260510024722 66 190 0.0 0.0 0.00 0.00 0.00 89 1010.1
20260510024219 66 180 0.0 0.0 0.00 0.00 0.00 89 1010.1
20260510023714 67 180 0.0 0.0 0.00 0.00 0.00 88 1010.2
20260510023212 67 189 0.0 0.0 0.00 0.00 0.00 88 1010.1
20260510022708 67 165 0.0 0.0 0.00 0.00 0.00 88 1010.0
20260510022203 67 169 0.0 0.0 0.00 0.00 0.00 88 1009.9
20260510021658 67 202 0.0 0.0 0.00 0.00 0.00 88 1009.9
20260510021155 67 172 0.0 0.0 0.00 0.00 0.00 87 1009.7
20260510020650 67 168 0.0 0.0 0.00 0.00 0.00 86 1009.5
20260510020145 67 170 0.0 0.0 0.00 0.00 0.00 86 1009.5
20260510015641 68 169 0.0 0.0 0.00 0.00 0.00 85 1009.4
20260510015139 68 167 0.0 0.0 0.00 0.00 0.00 84 1009.2
20260510014638 68 160 0.0 0.0 0.00 0.00 0.00 84 1008.9
20260510014136 68 170 0.0 0.0 0.00 0.00 0.00 84 1009.1
20260510013631 68 178 0.0 0.0 0.00 0.00 0.00 83 1009.0
20260510013127 68 183 0.0 0.9 0.00 0.00 0.00 83 1008.8
20260510012626 68 169 0.0 0.0 0.00 0.00 0.00 83 1008.5
20260510012123 69 168 0.0 0.0 0.00 0.00 0.00 82 1008.6
20260510011623 69 157 0.0 0.0 0.00 0.00 0.00 82 1008.7
20260510011119 69 154 0.0 0.0 0.00 0.00 0.00 81 1008.8
20260510010615 69 156 0.0 0.0 0.00 0.00 0.00 81 1008.6
20260510010113 69 218 0.0 0.0 0.00 0.00 0.00 81 1008.6
20260510005608 70 171 0.0 0.0 0.00 0.00 0.00 80 1008.6
20260510005106 70 172 0.0 0.0 0.00 0.00 0.00 79 1008.2
20260510004603 70 180 0.0 0.0 0.00 0.00 0.00 79 1008.5
20260510004101 71 162 0.0 0.0 0.00 0.00 0.00 79 1008.3
20260510003558 71 162 0.0 0.0 0.00 0.00 0.00 78 1008.2
20260510003054 71 160 0.0 0.0 0.00 0.00 0.00 77 1007.9
20260510002548 72 170 0.0 0.0 0.00 0.00 0.00 77 1007.8
20260510002046 72 204 0.0 0.0 0.00 0.00 0.00 76 1007.8
20260510001543 72 152 0.0 0.0 0.00 0.00 0.00 76 1007.7
20260510001042 72 202 0.0 0.0 0.00 0.00 0.00 75 1007.7
20260510000536 72 172 0.0 0.0 0.00 0.00 0.00 74 1007.7
20260510000033 73 163 0.0 0.0 0.00 0.00 0.00 74 1007.7
20260509235530 73 163 0.0 0.0 0.00 0.00 0.00 73 1007.8
20260509235027 73 166 0.0 0.0 0.00 0.00 0.00 73 1007.7
20260509234523 73 168 0.0 0.0 0.00 0.00 0.00 73 1007.9
20260509234021 73 174 0.0 0.0 0.00 0.00 0.00 72 1007.5
20260509233518 74 160 0.0 0.0 0.00 0.00 0.00 71 1007.7
20260509233015 74 160 0.0 0.0 0.00 0.00 0.00 70 1007.7
20260509232512 74 178 0.0 0.0 0.00 0.00 0.00 68 1007.6
20260509232009 74 201 0.0 0.0 0.00 0.00 0.00 67 1007.7
20260509231505 75 25 0.0 0.0 0.00 0.00 0.00 65 1007.6
20260509231003 75 25 0.0 0.0 0.00 0.00 0.00 65 1007.6
20260509230459 75 25 0.0 0.0 0.00 0.00 0.00 64 1007.6
20260509225955 75 83 0.0 0.0 0.00 0.00 0.00 64 1007.7
20260509225452 75 26 0.0 0.0 0.00 0.00 0.00 63 1007.4
20260509224948 75 51 0.0 0.0 0.00 0.00 0.00 64 1007.6
20260509224443 76 78 0.0 0.0 0.00 0.00 0.00 63 1007.3
20260509223940 75 47 0.0 0.0 0.00 0.00 0.00 63 1007.3
20260509223437 76 196 0.0 0.0 0.00 0.00 0.00 64 1007.4
20260509222935 76 64 0.0 0.0 0.00 0.00 0.00 62 1007.4
20260509222430 77 220 0.0 0.0 0.00 0.00 0.00 62 1007.2
20260509221926 76 334 0.0 0.0 0.00 0.00 0.00 63 1007.2
20260509221423 77 232 0.0 0.9 0.00 0.00 0.00 62 1007.5
20260509220918 76 233 0.0 0.0 0.00 0.00 0.00 63 1007.3
20260509220415 76 225 0.0 0.0 0.00 0.00 0.00 62 1007.4
20260509215911 77 272 0.0 0.0 0.00 0.00 0.00 62 1007.2
20260509215406 77 196 0.0 0.0 0.00 0.00 0.00 62 1007.2
20260509214904 77 220 0.0 0.0 0.00 0.00 0.00 62 1007.1
20260509214401 77 195 0.0 0.0 0.00 0.00 0.00 62 1007.4
20260509213858 77 220 0.0 0.0 0.00 0.00 0.00 64 1007.1
20260509213353 77 231 0.0 0.0 0.00 0.00 0.00 62 1007.2
20260509212851 76 139 0.0 0.0 0.00 0.00 0.00 64 1007.1
20260509212349 76 316 0.0 0.0 0.00 0.00 0.00 65 1007.0
20260509211844 76 317 0.0 0.0 0.00 0.00 0.00 65 1007.1
20260509211340 76 70 0.0 0.0 0.00 0.00 0.00 63 1007.3
20260509210837 77 189 0.0 0.0 0.00 0.00 0.00 62 1007.2
20260509210335 76 59 0.0 0.0 0.00 0.00 0.00 63 1007.0
20260509205834 76 82 0.0 0.0 0.00 0.00 0.00 64 1007.4
20260509205329 77 284 0.0 0.0 0.00 0.00 0.00 64 1007.4
20260509204826 77 164 0.0 0.0 0.00 0.00 0.00 62 1007.5